Temperature
15 16 17 17 17 17 16 15 14 15 15 14 14 14 14 14 14 14 13 13 13 13 13 13 13 13 12 12 12 12 12 12 12 11 11 11 11 10 10 10 10 10 9 9
16 17 16 16 16 16 16 16 15 15 14 14 14 14 13 13 13 13 13 13 13 13 13 13 12 12 12 12 12 11 11 11 11 11 11 10 10 10 10 10 9 9 9 9
14 15 16 15 15 16 15 15 15 14 14 13 12 12 12 13 13 12 12 12 12 12 12 12 12 12 12 12 11 11 11 11 11 11 10 10 10 10 9 9 9 9 9 8
13 14 15 15 15 15 15 14 14 14 13 13 13 13 13 13 13 12 12 12 12 12 12 12 11 11 11 11 11 11 11 11 10 10 10 10 9 9 9 9 9 9 8 8
12 13 13 14 15 15 14 13 13 13 12 12 12 12 12 12 13 12 12 12 12 12 12 11 11 11 11 11 10 10 10 10 10 10 10 9 9 9 9 9 8 8 8 8
12 13 13 14 15 15 14 13 13 12 12 12 12 10 10 12 12 12 12 12 11 11 11 11 11 11 10 10 10 10 10 10 10 10 9 9 9 9 8 8 8 8 8 7
11 12 12 13 14 15 13 13 13 13 12 12 11 11 12 12 12 12 12 11 11 11 11 11 10 10 10 10 10 10 10 10 10 9 9 9 9 8 8 8 7 7 7 7
11 11 12 13 13 12 12 13 13 12 12 12 12 12 12 11 11 11 11 11 11 11 10 10 10 10 10 10 10 9 9 9 9 9 9 8 8 8 7 7 7 7 7 6
11 11 12 13 13 14 13 13 12 12 12 12 11 11 11 11 11 10 10 10 10 10 10 10 10 10 10 9 9 9 9 9 9 8 8 8 8 7 7 7 6 6 6 6
10 11 11 12 13 13 13 13 13 12 12 12 11 11 11 11 10 10 10 10 10 10 9 9 9 9 9 9 9 9 8 8 8 8 8 7 7 7 7 6 6 6 6 6
10 10 11 12 12 13 13 12 12 12 11 11 11 11 10 10 10 10 9 9 9 9 9 9 9 9 9 9 8 8 8 8 8 7 7 7 7 6 6 6 6 6 6 5
10 10 10 11 12 12 12 12 12 11 11 11 10 10 10 10 9 9 9 9 9 9 9 8 8 8 8 8 8 8 8 7 7 7 7 6 6 6 6 6 5 5 5 5
12 12 12 11 11 11 11 11 11 11 11 10 10 10 10 9 9 9 9 8 8 8 8 8 8 8 8 7 7 7 7 7 7 6 6 6 6 6 5 5 5 5 5 5
11 11 10 11 11 11 11 11 11 10 10 10 10 9 9 9 9 9 8 8 8 8 8 8 7 7 7 7 7 7 7 6 6 6 6 6 5 5 5 5 5 5 5 4
11 11 10 10 10 10 10 10 10 10 10 9 9 9 9 8 8 8 8 8 7 7 7 7 7 7 7 6 6 6 6 6 6 5 5 5 5 5 5 5 5 4 4 4
10 10 10 10 10 9 9 9 9 9 9 9 9 9 8 8 8 8 7 7 7 7 7 7 6 6 6 6 6 6 6 5 5 5 5 5 5 4 4 4 4 4 4 4
9 9 9 9 9 9 9 9 9 9 9 8 8 8 8 8 7 7 7 7 7 6 6 6 6 6 6 6 6 5 5 5 5 5 5 4 4 4 4 4 4 4 4 4
9 9 9 8 8 8 8 8 8 8 8 8 8 7 7 7 7 7 6 6 6 6 6 5 5 5 5 5 5 5 5 5 4 4 4 4 4 4 4 4 4 4 4 3
9 8 8 8 8 8 8 7 7 7 7 7 7 7 7 7 6 6 6 5 5 5 5 5 5 5 5 5 5 5 4 4 4 4 4 4 4 4 4 4 4 3 3 3
8 8 8 8 8 7 7 7 7 7 7 6 6 6 6 6 6 5 5 5 5 5 5 4 4 4 4 4 4 4 4 4 4 4 4 4 3 3 3 3 3 3 3 3
7 7 7 7 7 7 7 6 6 6 6 6 6 6 6 5 5 5 5 4 4 4 4 4 4 4 4 4 4 4 3 3 3 3 3 3 3 3 3 3 3 3 3 3
7 7 6 6 6 6 6 6 5 5 5 5 5 5 5 5 4 4 4 4 4 4 4 4 4 3 3 3 3 3 3 3 3 3 3 3 3 3 3 3 2 2 2 2
6 6 6 6 6 5 5 5 5 5 5 5 5 5 4 4 4 4 3 3 3 3 3 3 3 3 3 3 3 3 3 3 3 2 2 2 2 2 2 2 2 2 2 2
6 6 6 5 5 5 5 5 4 4 4 4 4 4 4 4 3 3 3 3 3 3 3 3 3 3 3 3 2 2 2 2 2 2 2 2 2 2 2 2 2 2 2 2
5 5 5 5 5 5 5 4 4 4 4 4 4 4 4 3 3 3 3 2 2 2 3 3 3 2 2 2 2 2 2 2 2 2 2 2 2 2 2 2 2 2 2 2
5 5 5 5 4 4 4 4 4 4 4 3 3 3 3 3 3 2 2 2 2 2 2 2 2 2 2 2 2 2 2 2 2 2 2 2 2 2 2 2 2 1 1 1
4 4 4 4 4 4 4 4 3 3 3 3 3 3 3 2 2 2 2 2 2 2 2 2 2 2 2 2 2 2 1 1 2 1 1 2 1 1 1 1 1 1 1 1
Wind_Speed
6 6 3 4 5 4 5 7 7 6 6 6 6 5 4 3 3 4 3 3 3 3 2 3 3 3 3 4 4 4 5 5 5 4 4 3 2 2 2 2 3 3 2 2
4 3 1 3 4 4 4 4 6 5 4 3 3 2 2 2 4 4 3 4 3 2 1 2 3 4 4 4 4 4 5 5 4 4 3 3 2 2 2 2 2 2 2 2
4 4 2 4 4 4 2 2 4 6 6 3 3 3 3 3 4 4 3 3 3 3 3 3 3 4 5 5 4 4 4 4 4 4 4 3 3 2 3 2 2 2 1 2
1 1 4 5 1 2 3 0 0 2 3 5 6 5 4 3 5 4 3 3 3 3 3 2 2 3 3 4 4 4 4 3 4 4 4 3 3 3 3 2 2 2 2 2
2 2 4 4 2 2 3 2 1 2 2 3 3 3 1 1 3 5 5 4 4 4 4 3 2 3 3 4 3 3 3 4 4 4 4 4 4 3 3 2 2 2 3 2
3 3 5 5 4 2 3 2 2 3 3 3 3 1 3 2 1 2 3 3 3 3 3 3 3 3 4 4 3 3 3 3 3 4 5 5 4 3 2 2 2 2 2 2
3 4 5 5 4 2 2 5 2 3 3 3 3 4 3 1 0 1 1 2 3 3 3 3 3 4 4 4 3 3 2 2 2 3 4 4 3 3 3 2 2 1 1 1
3 3 6 3 2 3 5 2 2 2 3 3 2 2 2 2 1 1 1 1 2 3 2 2 3 5 4 3 3 2 2 1 2 2 3 2 3 2 2 3 2 1 0 1
5 5 4 2 3 3 3 3 2 3 2 3 3 2 2 1 1 1 1 1 2 3 2 2 3 4 4 3 2 2 2 1 2 2 2 3 3 3 2 2 2 2 1 1
1 3 2 1 0 1 3 3 3 3 3 3 2 2 2 1 0 0 0 1 1 3 3 2 2 3 3 3 3 3 3 2 2 3 2 2 2 2 3 3 3 2 2 2
2 2 1 2 2 1 1 2 3 3 3 3 3 2 2 1 1 1 0 1 2 3 3 2 2 2 2 3 4 3 2 2 2 2 2 2 1 1 2 3 4 3 3 3
5 5 4 5 4 2 1 2 3 3 2 2 3 3 2 2 1 1 1 1 1 2 2 2 2 2 2 3 4 4 2 2 2 2 2 2 2 1 2 0 1 1 1 1
4 3 3 3 2 1 1 2 3 4 4 2 1 2 3 2 2 2 2 2 2 3 2 2 2 2 1 2 3 3 3 2 2 2 2 2 2 2 0 2 2 1 1 0
0 1 1 2 2 2 2 2 2 3 2 2 2 2 2 1 1 2 2 2 2 2 2 2 2 1 1 2 3 3 2 2 2 2 2 2 2 2 2 1 0 2 2 1
3 2 3 2 1 1 1 2 2 2 1 0 1 2 2 2 3 2 1 2 2 2 1 2 2 1 1 2 2 2 2 2 2 2 2 2 2 2 1 1 1 0 1 2
2 1 0 1 1 1 1 2 3 2 2 2 1 2 2 3 3 2 2 3 3 2 2 2 1 1 1 1 2 1 1 2 2 2 2 2 2 2 2 2 1 1 1 1
1 1 1 1 1 1 1 2 3 3 2 2 2 2 2 3 2 1 1 2 3 3 2 2 2 1 1 1 1 1 1 2 2 1 2 2 2 2 2 2 2 2 2 2
4 4 4 4 3 2 1 1 1 2 2 2 1 2 2 3 3 2 1 1 2 1 0 1 1 1 1 1 1 1 1 1 1 2 2 2 2 2 2 2 3 2 2 1
1 2 2 3 3 3 2 2 1 1 1 1 2 1 2 3 3 2 2 3 2 1 2 1 1 2 1 1 1 1 1 1 1 0 1 1 1 2 2 2 2 2 2 2
0 1 1 1 1 1 1 1 1 1 1 2 2 1 1 1 1 2 2 2 2 3 2 1 1 1 1 1 1 1 1 1 1 1 1 1 1 2 2 2 2 2 2 2
0 0 1 1 0 1 1 2 2 2 1 2 2 2 2 1 1 1 2 2 2 1 1 1 1 1 1 1 1 1 1 1 2 2 2 2 2 2 2 2 2 2 2 3
0 0 0 0 0 1 1 2 2 2 2 2 2 1 1 1 1 1 2 3 2 1 1 1 2 2 1 1 1 1 2 2 2 2 2 2 2 2 2 2 3 3 3 3
2 2 2 2 2 2 1 1 2 2 3 3 2 2 3 3 2 2 2 2 2 2 1 2 3 3 2 1 1 2 2 2 2 2 3 3 3 3 3 3 3 3 3 3
2 2 3 2 1 1 2 2 2 2 2 2 3 3 3 2 2 3 3 3 3 2 2 3 3 2 1 1 1 2 2 3 3 3 3 2 3 2 3 3 3 3 3 3
2 2 2 1 2 2 3 3 1 1 1 1 2 2 2 3 3 3 2 3 3 3 2 3 3 3 1 1 2 2 2 3 3 3 2 2 3 3 3 3 3 3 3 3
2 2 2 3 3 3 2 2 2 2 2 2 2 2 2 1 2 2 1 2 2 2 2 2 2 2 1 2 2 2 3 3 3 3 3 3 3 3 3 3 4 4 3 3
1 1 1 1 2 2 2 3 3 3 3 3 3 2 2 2 2 2 2 2 2 2 2 2 2 2 2 2 2 2 2 2 2 3 3 3 3 3 4 4 3 3 3 4
Wind_Direction
238 250 243 244 248 222 194 191 198 223 213 222 216 203 196 176 145 127 125 127 132 143 157 163 166 167 170 168 164 160 156 162 177 175 166 155 151 160 163 158 160 160 155 170
276 270 289 298 280 245 219 199 196 200 232 226 195 134 114 134 131 129 148 155 155 151 148 172 185 182 174 176 178 163 165 177 176 164 159 161 167 162 155 167 169 153 171 183
267 286 355 279 268 233 215 235 191 209 221 178 138 148 175 172 157 159 169 172 175 180 189 195 199 187 181 183 174 162 169 180 175 168 168 179 179 164 175 183 167 161 179 183
231 359 237 247 275 165 154 46 108 160 172 170 166 172 182 178 171 179 192 197 198 193 195 192 184 180 174 165 166 175 178 182 184 176 179 182 177 179 181 179 180 187 189 198
157 221 263 285 291 189 173 230 289 151 147 146 132 83 350 241 182 191 198 203 210 202 186 171 175 177 159 157 168 175 186 192 192 184 179 178 183 189 186 176 185 201 195 192
155 198 234 253 284 291 127 238 279 156 156 162 123 120 263 276 214 213 207 195 198 192 160 159 172 163 151 159 169 189 201 204 195 185 182 184 189 188 184 176 190 187 203 213
182 218 255 273 295 60 160 243 252 168 159 157 176 201 225 229 177 148 177 194 181 162 159 176 167 151 152 163 188 212 211 199 184 179 184 183 177 173 164 162 158 163 213 258
169 202 253 284 90 165 213 215 154 155 150 143 147 128 111 105 91 82 79 161 168 161 167 174 161 153 160 188 205 191 168 161 170 172 179 159 148 159 160 154 150 164 214 285
193 211 247 235 181 193 162 155 172 166 165 139 122 122 104 101 93 97 129 157 175 166 155 160 168 163 170 196 178 156 146 157 167 155 152 154 159 161 160 162 169 186 200 233
236 266 289 294 330 135 156 167 174 160 158 145 129 125 108 114 119 298 204 165 144 146 149 170 181 169 175 176 157 146 151 165 153 143 137 135 150 170 174 180 185 193 205 225
243 273 329 299 271 199 121 110 113 114 134 147 134 138 146 159 178 223 210 169 137 141 156 174 170 161 163 162 152 150 157 169 162 153 149 146 140 178 189 203 194 191 209 209
228 229 212 242 248 222 166 163 144 128 124 141 151 166 163 168 187 183 164 145 135 134 134 138 138 136 139 149 150 153 159 165 167 158 159 153 141 46 356 42 159 165 185 199
220 227 206 221 240 201 181 190 168 156 164 176 186 170 169 179 199 172 163 165 166 164 154 143 139 137 129 135 143 149 163 174 169 161 161 163 162 163 224 355 15 12 327 211
201 82 305 261 242 225 208 197 153 134 149 177 176 163 166 166 175 174 191 193 163 146 140 135 135 154 175 138 140 154 165 176 167 177 180 175 175 173 177 169 331 339 331 341
283 237 216 235 241 216 175 137 130 136 144 157 157 159 162 163 176 195 193 148 129 125 126 129 130 169 192 141 141 162 175 180 176 180 181 172 167 161 162 174 184 195 4 353
279 333 113 162 188 188 166 161 167 183 181 172 173 183 185 177 177 173 154 152 152 165 178 164 180 212 160 128 131 148 181 179 165 173 174 166 165 164 170 174 185 205 227 260
194 242 238 228 226 228 217 208 195 193 189 182 195 179 135 122 122 130 165 182 175 185 187 179 195 190 135 132 146 167 171 189 180 173 186 188 183 189 195 195 199 213 231 229
202 206 199 196 197 203 222 206 177 166 182 205 168 137 136 146 162 176 177 141 108 83 231 221 170 130 109 100 134 161 168 176 184 194 201 203 197 199 200 209 220 223 233 225
195 199 195 186 186 183 184 188 195 175 146 113 122 155 182 176 176 175 159 146 157 205 260 267 138 123 126 90 89 127 156 170 174 205 209 212 214 210 211 220 223 224 216 208
167 179 169 163 155 164 184 199 180 147 139 127 123 115 121 182 177 167 160 178 212 226 232 216 159 167 184 182 108 131 147 173 185 196 197 209 217 232 235 233 234 230 221 213
114 150 138 150 197 195 185 185 181 187 195 164 164 193 205 202 178 164 167 226 264 247 207 185 171 202 210 213 137 148 168 181 193 201 209 221 225 230 241 245 241 235 230 227
229 240 235 201 217 245 225 194 189 194 191 194 196 188 178 180 193 212 229 226 233 232 215 210 213 228 236 183 177 191 195 196 207 215 223 229 230 231 240 246 244 243 239 234
230 222 215 216 218 235 258 225 202 194 195 202 202 197 196 200 198 201 250 253 221 222 216 220 239 247 244 152 192 207 212 211 217 223 229 232 237 237 238 245 244 244 244 244
239 230 225 223 200 186 237 255 238 216 209 214 216 209 199 201 231 234 229 229 224 225 219 228 233 243 232 173 207 217 224 227 226 229 237 237 236 240 242 244 246 248 248 249
230 225 215 198 204 223 231 229 217 219 218 236 249 246 229 209 214 231 229 222 228 231 228 234 237 252 248 225 228 233 236 238 235 227 228 237 241 242 243 243 243 249 251 249
220 225 225 224 223 220 212 202 207 218 212 231 261 261 256 238 220 216 219 223 220 232 230 234 238 241 240 242 243 239 238 248 257 249 239 240 246 248 250 252 252 250 250 250
220 217 224 269 263 229 209 202 208 219 212 208 228 243 235 224 214 209 209 213 217 225 231 239 244 250 253 254 253 255 253 247 244 246 248 250 250 252 255 254 253 253 254 255
Height
1494 1490 1489 1489 1488 1487 1491 1495 1501 1498 1497 1494 1492 1491 1491 1491 1491 1491 1493 1493 1494 1494 1495 1496 1497 1498 1500 1500 1501 1502 1503 1504 1505 1505 1506 1506 1507 1507 1507 1507 1507 1507 1507 1507
1493 1487 1487 1488 1486 1485 1486 1487 1491 1491 1493 1489 1489 1490 1490 1490 1490 1491 1491 1492 1492 1493 1493 1494 1494 1495 1497 1497 1498 1499 1500 1501 1501 1502 1502 1503 1504 1504 1504 1504 1504 1504 1504 1504
1500 1491 1488 1494 1487 1485 1485 1485 1486 1490 1489 1487 1488 1489 1489 1489 1489 1489 1490 1490 1490 1491 1491 1492 1492 1493 1494 1495 1495 1496 1497 1498 1498 1499 1499 1500 1501 1501 1501 1501 1501 1501 1501 1501
1500 1496 1501 1492 1482 1481 1483 1485 1483 1483 1484 1484 1484 1485 1486 1486 1487 1487 1488 1488 1488 1488 1489 1490 1490 1491 1491 1492 1493 1493 1494 1494 1495 1496 1496 1497 1497 1497 1498 1498 1498 1498 1498 1498
1501 1501 1497 1488 1481 1481 1483 1486 1483 1483 1483 1483 1483 1484 1485 1485 1485 1485 1485 1485 1485 1486 1486 1487 1488 1488 1489 1489 1490 1491 1491 1491 1492 1493 1493 1493 1494 1494 1494 1494 1495 1495 1495 1494
1499 1499 1500 1489 1480 1477 1480 1487 1482 1481 1482 1482 1482 1486 1485 1483 1482 1482 1482 1483 1483 1483 1484 1484 1485 1486 1486 1487 1487 1488 1488 1489 1489 1490 1490 1490 1490 1491 1491 1491 1491 1491 1491 1491
1498 1499 1492 1483 1478 1478 1489 1488 1481 1480 1480 1480 1480 1482 1482 1481 1480 1480 1480 1480 1480 1481 1481 1482 1483 1484 1484 1485 1485 1485 1486 1486 1486 1487 1487 1487 1487 1488 1488 1488 1488 1488 1488 1487
1497 1499 1494 1479 1479 1482 1482 1479 1479 1479 1479 1479 1479 1479 1479 1479 1478 1478 1477 1478 1478 1478 1479 1479 1480 1481 1481 1482 1482 1483 1483 1483 1483 1484 1484 1484 1485 1485 1485 1485 1485 1484 1484 1484
1489 1488 1480 1477 1477 1477 1477 1477 1478 1478 1478 1478 1478 1477 1477 1477 1477 1476 1476 1475 1476 1476 1476 1477 1478 1479 1479 1479 1480 1480 1480 1480 1481 1481 1481 1482 1482 1482 1482 1482 1482 1482 1481 1481
1484 1481 1478 1477 1477 1477 1477 1476 1476 1477 1477 1477 1476 1476 1476 1476 1475 1475 1474 1474 1474 1474 1474 1475 1476 1477 1477 1477 1478 1478 1478 1478 1478 1478 1479 1479 1480 1480 1480 1480 1480 1479 1479 1478
1482 1480 1478 1477 1476 1476 1476 1476 1475 1475 1475 1475 1475 1474 1474 1474 1473 1473 1473 1472 1472 1472 1472 1473 1474 1475 1475 1475 1475 1475 1476 1476 1476 1476 1476 1477 1477 1477 1478 1478 1478 1477 1476 1476
1480 1477 1477 1476 1476 1475 1475 1474 1474 1474 1474 1474 1474 1473 1473 1472 1472 1472 1472 1471 1471 1471 1471 1472 1472 1473 1473 1473 1474 1474 1474 1474 1474 1474 1474 1474 1475 1475 1476 1476 1476 1475 1475 1474
1473 1473 1474 1474 1474 1474 1473 1473 1473 1473 1473 1472 1472 1472 1472 1471 1471 1471 1470 1470 1470 1470 1470 1470 1471 1471 1472 1472 1472 1472 1472 1472 1472 1472 1472 1472 1472 1473 1473 1473 1473 1473 1473 1472
1472 1472 1472 1471 1471 1471 1471 1471 1471 1471 1471 1471 1471 1471 1470 1470 1470 1469 1469 1469 1469 1469 1469 1469 1469 1470 1470 1470 1471 1471 1471 1471 1470 1470 1470 1471 1471 1471 1471 1471 1470 1470 1471 1470
1470 1470 1470 1469 1469 1469 1469 1469 1469 1469 1469 1469 1469 1469 1468 1468 1468 1468 1468 1468 1468 1468 1467 1467 1468 1468 1469 1469 1469 1469 1469 1469 1469 1469 1469 1469 1469 1469 1469 1469 1469 1468 1468 1468
1468 1468 1468 1467 1467 1467 1467 1467 1467 1467 1467 1467 1467 1466 1466 1466 1466 1466 1466 1466 1466 1466 1466 1466 1466 1467 1467 1467 1467 1467 1467 1467 1467 1467 1467 1467 1467 1467 1467 1467 1467 1466 1466 1465
1466 1466 1465 1465 1465 1465 1465 1465 1465 1465 1465 1465 1465 1465 1464 1464 1464 1464 1464 1464 1464 1464 1464 1464 1465 1465 1465 1465 1465 1465 1465 1465 1465 1465 1465 1465 1465 1465 1465 1465 1465 1464 1464 1464
1464 1463 1464 1464 1463 1463 1464 1464 1463 1463 1463 1463 1463 1462 1462 1462 1462 1462 1462 1462 1462 1462 1463 1463 1463 1463 1463 1463 1463 1463 1463 1463 1463 1463 1463 1463 1463 1463 1463 1463 1462 1462 1462 1462
1462 1462 1461 1462 1462 1462 1461 1461 1461 1461 1461 1461 1460 1460 1460 1460 1460 1460 1460 1460 1460 1460 1460 1461 1461 1461 1461 1460 1460 1460 1460 1460 1461 1461 1461 1461 1461 1461 1460 1460 1460 1460 1459 1459
1460 1460 1460 1460 1460 1460 1460 1460 1459 1459 1459 1459 1458 1458 1457 1458 1458 1458 1458 1458 1458 1458 1458 1458 1458 1458 1458 1458 1458 1458 1458 1458 1458 1458 1458 1458 1458 1458 1458 1457 1457 1457 1456 1456
1459 1458 1458 1458 1458 1458 1458 1458 1458 1457 1457 1457 1457 1456 1456 1456 1456 1456 1456 1456 1456 1456 1456 1456 1456 1456 1456 1456 1456 1456 1455 1455 1455 1455 1455 1455 1455 1455 1455 1454 1454 1454 1454 1453
1458 1457 1457 1456 1456 1456 1456 1456 1456 1455 1455 1455 1455 1454 1454 1454 1453 1454 1454 1454 1453 1454 1454 1454 1453 1453 1454 1453 1453 1453 1453 1453 1453 1452 1452 1452 1452 1452 1451 1451 1451 1451 1451 1450
1456 1455 1455 1454 1454 1454 1453 1453 1453 1453 1453 1452 1452 1452 1452 1451 1451 1451 1451 1451 1451 1451 1451 1451 1451 1451 1451 1451 1450 1450 1450 1450 1449 1449 1449 1449 1449 1448 1448 1448 1448 1447 1447 1446
1453 1453 1453 1452 1452 1451 1451 1451 1451 1451 1450 1450 1450 1450 1450 1449 1449 1449 1449 1449 1448 1449 1448 1448 1449 1449 1448 1448 1448 1447 1447 1446 1446 1446 1446 1446 1445 1445 1445 1445 1444 1443 1443 1442
1451 1450 1450 1450 1449 1449 1448 1448 1448 1448 1448 1447 1447 1447 1447 1447 1446 1446 1446 1446 1446 1446 1446 1446 1446 1446 1445 1445 1445 1444 1444 1443 1443 1443 1442 1442 1442 1441 1441 1441 1440 1440 1439 1438
1448 1448 1447 1447 1447 1446 1446 1445 1445 1445 1445 1444 1444 1444 1444 1444 1444 1443 1443 1443 1443 1443 1443 1443 1443 1443 1442 1442 1442 1441 1441 1440 1440 1439 1439 1438 1438 1438 1437 1437 1436 1435 1435 1434
1445 1445 1444 1444 1443 1443 1443 1443 1442 1442 1442 1442 1441 1441 1441 1441 1441 1440 1440 1440 1440 1440 1440 1440 1440 1440 1440 1439 1439 1438 1438 1437 1437 1436 1435 1435 1434 1434 1433 1433 1432 1431 1430 1430